OBJECT Z, 47436

Orbit data source: Space-Track

You're viewing an Uncataloged Satellite

Recently launched and/or uncataloged satellites may have evolving metadata. Metadata may include but not limited to: Owner, Maufacturer, Bus, Motor, and Mission.

OBJECT Z, 47436 is a satellite in SSO that was launched on Sun, 24 Jan 2021 UTC launched from the Air Force Eastern Test Range (AFETR). Unknown objects in Earth's orbit typically refer to objects detected orbiting the Earth but have not yet been identified or cataloged. These objects could be anything from previously untracked satellites, spent rocket stages, debris from satellite collisions, or even natural meteoroids temporarily captured by Earth's gravity.

Loading next visibility...
Identifier
47436, 2021-006Z
Orbit
SSO
Country
Flag of TBDTBD
Related business
Manufacturer
SpaceX/Seattle
Mission
Spacecraft
Bus & Motor
Unknown
Mass
~100 kg wet, ~100 kg dry
Launch date (UTC)
2021-01-24 (5 years ago)
Launch vehicle
Unknown
Launch site
Air Force Eastern Test Range (AFETR)
Object type
Unknown
Shape & HBR
Cyl, 3.5 m
Radar Cross Section
0.110 m², Medium (>0.1 m² and < 1m²)

Expand to show TLE details & history
Last TLE update: 10 hours ago

TLE from 10 hours ago
0 OBJECT Z
1 47436U 21006Z   25287.96766258  .00006698  00000-0  24221-3 0  9999
2 47436  97.2619 331.0466 0010394 359.9127   0.2109 15.28712552261881
Epoch: 2025-10-14T23:13Z
TLE epoch observation values (Epoch: 2025-10-14T23:13:26.046Z)
Latitude
-0.00011°
Longitude
-41.0604°
Altitude
475.637 km
Speed
7.632 km/s
True Right ascension
22h 04m 11s
True Declination
0° 00' 00"
Sunlit
Object was in full shadow at epoch
Visualization orbit readout
Latitude
Unknown
Longitude
Unknown
Altitude
Unknown
Speed
Unknown
Apparent Right ascension
Unknown
Apparent Declination
Unknown
Sunlit
N/A
Visualization observer readout
Local Sidereal Time
03:21:33
Azimuth
Unknown
Elevation
Unknown
Doppler factor
Unknown
Orbital elements
Apogee altitude
483.733 km
Perigee altitude
469.483 km
Semi-major axis
6,854.745 km
Eccentricity
0.00104
Inclination
97.2619°
RAAN
331.0466°
Arg. of periapsis
359.9127°
True anomaly
0.21134°
Mean anomaly
0.2109°
Eccentric anomaly
0.21112°
Mean motion
3.82434 °/min
Orbital period
94.13 mins
BSTAR
0.00024221
Loading maneuver chart data...
Computing Atmospheric mass density...

Documentation

Showing up to 5 results
|